Weather Roundup
Issued by NWS

Home | Current Version | Previous Version | Graphics & Text | Print | Product List | Glossary Off
Versions: 1 2 3 4 5 6 7 8 9 10 11 12 13 14 15 16 17 18 19 20 21 22 23 24 25 26 27 28 29 30 31 32 33 34 35 36 37 38 39 40 41 42 43 44 45 46 47 48 49 50

000
NZUS93 KARX 201759
HRRWXR

CURRENT HOURLY OBSERVATIONS ACROSS
MUCH OF THE UPPER MISSISSIPPI VALLEY
NATIONAL WEATHER SERVICE LA CROSSE WI
100 PM CDT WED AUG 20 2014


...SOUTHEAST MINNESOTA...


CITY           SKY/WX    TMP DP  RH WIND       PRES   REMARKS
ROCHESTER      PTSUNNY   78  66  66 SE7       29.88S
ROCHESTER/MAYO FAIR      79  61  54 S3        29.87F
WINONA         MOSUNNY   77  66  69 CALM      29.86F
AUSTIN         CLOUDY    79  68  69 SE7       29.87R
ALBERT LEA     CLOUDY    79  66  65 S6        29.87R
DODGE CENTER   PTSUNNY   77  66  69 SE5       29.88R
PRESTON        PTSUNNY   79  71  75 S9        29.88F
OWATONNA       PTSUNNY   81  64  57 S6        29.88R
FARIBAULT      PTSUNNY   84  63  48 S7        29.88R
$$

...ELSEWHERE IN MINNESOTA...


CITY           SKY/WX    TMP DP  RH WIND       PRES   REMARKS
MINNEAPOLIS    MOSUNNY   79  65  62 S7G20     29.87R
INTNL FALLS    PTSUNNY   72  58  61 E6        29.88R
DULUTH         CLOUDY    67  58  72 S5        29.90F
RED WING       PTSUNNY   77  64  65 SE7       29.86S
REDWOOD FALLS  SUNNY     82  66  58 SE13      29.83F
MANKATO        PTSUNNY   79  66  65 SE9       29.86S
WORTHINGTON    CLOUDY    75  16  10 S9        29.87S
FAIRMONT       CLOUDY    79  64  61 SE10      29.86S
$$

...SOUTHWEST WISCONSIN...


CITY           SKY/WX    TMP DP  RH WIND       PRES   REMARKS
LA CROSSE      SUNNY     81  65  58 E6        29.86F
PRAIRIE DU CHI SUNNY     81  65  57 S6        29.86F
BOSCOBEL       SUNNY     85  66  53 SW8       29.87F
LONE ROCK      NOT AVBL
PLATTEVILLE    SUNNY     80  69  68 SW13      29.91F
FORT MC COY    MOSUNNY   78  63  58 W5        29.89F
VIROQUA        FAIR      79  64  59 W5        29.89F
WIS DELLS      MOSUNNY   80  61  52 W7        29.89F
$$

...ELSEWHERE IN WISCONSIN...


CITY           SKY/WX    TMP DP  RH WIND       PRES   REMARKS
MILWAUKEE      PTSUNNY   76  65  68 SE6       29.90R
MADISON        PTSUNNY   82  64  54 W7        29.88F
GREEN BAY      CLOUDY    69  62  78 NW5       29.90R
EAU CLAIRE     PTSUNNY   72  61  68 CALM      29.89F
BLACK RVR FLS  CLOUDY    77  63  61 NW6       29.88F
MEDFORD        CLOUDY    67  59  76 CALM      29.92R
WAUSAU         CLOUDY    67  60  78 S3        29.90R
WIS RAPIDS     PTSUNNY   74  61  63 VRB5      29.91F
MARSHFIELD     CLOUDY    68  60  75 CALM      29.91F
RICE LAKE      CLOUDY    71  58  65 CALM      29.91R
$$

...NORTHEAST IOWA...


CITY           SKY/WX    TMP DP  RH WIND       PRES   REMARKS
WATERLOO       CLOUDY    75  65  70 SE7       29.83F
DUBUQUE        PTSUNNY   79  66  64 SW13      29.90F
DECORAH        MOSUNNY   79  68  69 VRB5      29.87F
MASON CITY     CLOUDY    77  67  71 SE7       29.87F
CHARLES CITY   CLOUDY    79  68  69 S9        29.87F
OELWEIN        CLOUDY    77  68  73 S10       29.89F
$$

...ELSEWHERE IN IOWA...


CITY           SKY/WX    TMP DP  RH WIND       PRES   REMARKS
DES MOINES     LGT RAIN  74  68  81 S8        29.86R
IOWA CITY      LGT RAIN  74  68  81 NE6       29.87F
FORT DODGE     CLOUDY    70  68  94 SE8       29.86S
MARSHALLTOWN   CLOUDY    70  68  93 W9        29.88R
CEDAR RAPIDS   CLOUDY    74  68  81 E7        29.85F
$$

...NORTHERN ILLINOIS...


CITY           SKY/WX    TMP DP  RH WIND       PRES   REMARKS
CHICAGO-OHARE  PTSUNNY   83  64  52 SW12G20   29.91S
DUPAGE         MOSUNNY   85  67  54 W16G23    29.92S
CHICAGO-MIDWAY PTSUNNY   84  68  58 SW14G22   29.91F
MOLINE         CLOUDY    79  68  69 SE3       29.90F
ROCKFORD       PTSUNNY   84  66  54 W12       29.92S
STERLING       PTSUNNY   82  70  65 W9        29.92F
PEORIA         CLOUDY    76  68  76 SW7       29.94F
$$

NOTE: "FAIR" INDICATES FEW OR NO CLOUDS BELOW 12,000 FEET WITH NO
SIGNIFICANT WEATHER AND/OR OBSTRUCTIONS TO VISIBILITY. WIND
SPEEDS ARE IN MILES-PER-HOUR.



USA.gov is the U.S. government's official web portal to all federal, state and local government web resources and services.